Hayward, WI

7:10 PM CDT on March 30, 2017 (GMT -0500)
Sawyer County

Weather History for KHYR - June, 2014

Change the Weather History Date:

Saturday, June 14, 2014

  Actual Average Record
Temperature  
Mean Temperature 60 °F -  
Max Temperature 68 °F 78 °F 89 °F (2007)
Min Temperature 53 °F 56 °F 34 °F (1997)
Degree Days  
Heating Degree Days 6    
Growing Degree Days 10 (Base 50)    
Moisture  
Dew Point 50 °F    
Average Humidity 71    
Maximum Humidity 100    
Minimum Humidity 54    
Precipitation  
Precipitation 0.21 in - - ()
Sea Level Pressure  
Sea Level Pressure 29.94 in    
Wind  
Wind Speed 4 mph (ESE)    
Max Wind Speed 10 mph    
Max Gust Speed 23 mph    
Visibility 9 miles    
Events Rain , Thunderstorm    
Averages and records for this station are not official NWS values.
T = Trace of Precipitation, MM = Missing Value Source: NWS Daily Summary

Daily Weather History Graph

Daily Weather History Graph

Search for Another Location

Airport or City:

Trip Planner

Search our weather history database for the weather conditions in past years. The results will help you decide how hot, cold, wet, or windy it might be!

Date:

Astronomy

Jun. 14, 2014 Rise Set
Actual Time 5:14 AM CDT 8:58 PM CDT
Civil Twilight 4:35 AM CDT 9:36 PM CDT
Nautical Twilight 3:44 AM CDT 10:28 PM CDT
Astronomical Twilight 2:32 AM CDT 11:40 PM CDT
Moon 10:14 PM CDT (6/14) 7:04 AM CDT (6/14)
Length of Visible Light 17h 00m
Length of Day
15h 43m
Waning Gibbous, 97% of the Moon is Illuminated
Jun 14
Waning Gibbous
Jun 19
Last Quarter
Jun 27
New
Jul 5
First Quarter
Jul 12
Full

Hourly Weather History & Observations

Time (CDT) Temp. Dew Point Humidity Pressure Visibility Wind Dir Wind Speed Gust Speed Precip Events Conditions
12:53 AM 54.0 °F 50.0 °F 86% 30.00 in 10.0 mi North 4.6 mph - N/A   Clear
1:53 AM 54.0 °F 51.1 °F 90% 30.01 in 10.0 mi Calm Calm - N/A   Clear
2:53 AM 53.1 °F 50.0 °F 89% 30.00 in 10.0 mi NNE 4.6 mph - N/A   Clear
3:53 AM 54.0 °F 48.0 °F 80% 30.00 in 10.0 mi Calm Calm - N/A   Clear
4:53 AM 55.0 °F 46.0 °F 72% 30.00 in 10.0 mi ESE 6.9 mph - N/A   Scattered Clouds
5:53 AM 55.9 °F 45.0 °F 67% 30.01 in 10.0 mi Calm Calm - N/A   Mostly Cloudy
6:53 AM 55.0 °F 46.9 °F 74% 30.03 in 10.0 mi ENE 3.5 mph - 0.00 in Rain Light Rain
7:53 AM 55.0 °F 46.0 °F 72% 30.00 in 10.0 mi Variable 5.8 mph - 0.00 in   Overcast
8:53 AM 55.9 °F 46.0 °F 69% 30.01 in 10.0 mi SSE 8.1 mph - N/A   Overcast
9:53 AM 57.0 °F 46.9 °F 69% 30.02 in 10.0 mi Variable 6.9 mph - N/A   Clear
10:53 AM 59.0 °F 48.0 °F 67% 29.99 in 10.0 mi SE 9.2 mph - N/A   Mostly Cloudy
11:53 AM 61.0 °F 48.9 °F 64% 29.96 in 10.0 mi SE 9.2 mph - N/A   Mostly Cloudy
12:53 PM 62.1 °F 50.0 °F 65% 29.93 in 10.0 mi Variable 4.6 mph - 0.00 in   Overcast
1:53 PM 63.0 °F 52.0 °F 67% 29.93 in 10.0 mi SE 3.5 mph - 0.00 in   Overcast
2:53 PM 64.0 °F 52.0 °F 65% 29.92 in 10.0 mi East 4.6 mph - 0.00 in Rain Light Rain
4:53 PM 66.9 °F 53.1 °F 61% 29.89 in 10.0 mi ESE 6.9 mph - N/A   Mostly Cloudy
5:53 PM 66.9 °F 52.0 °F 59% 29.87 in 10.0 mi Variable 6.9 mph - N/A   Overcast
6:53 PM 66.0 °F 52.0 °F 60% 29.86 in 10.0 mi Variable 6.9 mph - N/A   Overcast
7:53 PM 66.0 °F 51.1 °F 59% 29.86 in 10.0 mi SSE 8.1 mph - N/A   Overcast
8:53 PM 64.9 °F 48.0 °F 54% 29.84 in 10.0 mi SE 10.4 mph 23.0 mph N/A   Overcast
9:53 PM 64.0 °F 46.9 °F 54% 29.86 in 10.0 mi Variable 3.5 mph - N/A   Overcast
10:33 PM 62.1 °F 50.0 °F 65% 29.88 in 10.0 mi Calm Calm - 0.01 in Rain , Thunderstorm Light Rain
10:48 PM 59.0 °F 53.6 °F 82% 29.89 in 5.0 mi Calm Calm - 0.03 in Rain Rain
10:53 PM 57.9 °F 57.0 °F 97% 29.90 in 5.0 mi Calm Calm - 0.04 in Rain Light Rain
11:53 PM 57.0 °F 57.0 °F 100% 29.91 in 3.0 mi Calm Calm - 0.17 in Rain Rain